QPF
0.06 0.06 0.09 0.08 0.07 0.06 0.05 0.05 0.05 0.06 0.07 0.07 0.07 0.08 0.07 0.05 0.04 0.03 0.03 0.03 0.02 0.02 0.02 0.02 0.02 0.02 0.04 0.05 0.07 0.08 0.09 0.10 0.12 0.15 0.13 0.11 0.10 0.10 0.08 0.08 0.09 0.08 0.07
0.06 0.07 0.09 0.08 0.04 0.03 0.03 0.02 0.03 0.03 0.03 0.03 0.03 0.03 0.02 0.02 0.01 0.01 0.01 0.01 0.01 0.00 0.01 0.00 0.00 0.00 0.01 0.02 0.04 0.06 0.07 0.07 0.09 0.11 0.12 0.13 0.11 0.09 0.07 0.06 0.06 0.06 0.07
0.06 0.06 0.05 0.03 0.02 0.02 0.01 0.01 0.01 0.01 0.01 0.01 0.01 0.01 0.01 0.00 0.01 0.01 0.01 0.01 0.00 0.00 0.00 0.00 0.00 0.00 0.01 0.01 0.02 0.03 0.05 0.08 0.08 0.07 0.09 0.10 0.09 0.08 0.06 0.05 0.05 0.05 0.06
0.04 0.04 0.03 0.01 0.01 0.01 0.01 0.00 0.00 0.00 0.00 0.00 0.00 0.00 0.00 0.00 0.00 0.00 0.00 0.00 0.00 0.00 0.00 0.00 0.00 0.00 0.02 0.04 0.05 0.04 0.04 0.06 0.09 0.10 0.09 0.08 0.07 0.08 0.06 0.05 0.05 0.06 0.06
0.02 0.02 0.01 0.01 0.00 0.00 0.00 0.00 0.00 0.00 0.00 0.00 0.00 0.00 0.00 0.00 0.00 0.00 0.00 0.00 0.00 0.00 0.00 0.00 0.00 0.00 0.01 0.02 0.04 0.07 0.07 0.06 0.06 0.08 0.11 0.10 0.08 0.07 0.07 0.05 0.05 0.06 0.06
0.01 0.01 0.01 0.01 0.00 0.00 0.00 0.00 0.00 0.00 0.00 0.00 0.00 0.00 0.00 0.00 0.00 0.00 0.00 0.00 0.00 0.00 0.00 0.01 0.00 0.00 0.00 0.00 0.00 0.01 0.04 0.06 0.06 0.08 0.09 0.10 0.10 0.10 0.08 0.08 0.06 0.06 0.06
0.01 0.01 0.00 0.00 0.00 0.00 0.00 0.00 0.00 0.00 0.00 0.00 0.00 0.00 0.00 0.00 0.00 0.00 0.00 0.00 0.00 0.00 0.00 0.00 0.00 0.00 0.00 0.00 0.00 0.00 0.01 0.01 0.02 0.04 0.06 0.08 0.10 0.10 0.10 0.08 0.07 0.06 0.05
0.00 0.00 0.00 0.00 0.00 0.00 0.00 0.00 0.00 0.00 0.00 0.00 0.00 0.00 0.00 0.00 0.00 0.00 0.00 0.00 0.00 0.00 0.00 0.00 0.01 0.01 0.01 0.01 0.00 0.00 0.01 0.01 0.01 0.02 0.02 0.04 0.07 0.09 0.11 0.11 0.09 0.08 0.06
0.00 0.00 0.00 0.00 0.00 0.00 0.00 0.00 0.00 0.00 0.00 0.00 0.00 0.00 0.00 0.00 0.00 0.00 0.00 0.00 0.00 0.00 0.00 0.00 0.00 0.00 0.01 0.01 0.01 0.01 0.00 0.01 0.01 0.01 0.02 0.03 0.05 0.07 0.08 0.10 0.10 0.10 0.09
0.00 0.00 0.00 0.00 0.00 0.00 0.00 0.00 0.00 0.00 0.00 0.00 0.00 0.00 0.00 0.00 0.00 0.00 0.00 0.00 0.00 0.00 0.00 0.00 0.00 0.00 0.00 0.01 0.01 0.00 0.00 0.00 0.00 0.00 0.01 0.02 0.03 0.06 0.08 0.09 0.10 0.09 0.09
0.00 0.00 0.00 0.00 0.00 0.00 0.00 0.00 0.00 0.00 0.00 0.00 0.00 0.00 0.00 0.00 0.00 0.00 0.00 0.00 0.00 0.00 0.00 0.00 0.00 0.00 0.00 0.00 0.00 0.00 0.00 0.00 0.00 0.00 0.00 0.01 0.02 0.03 0.06 0.09 0.10 0.09 0.08
0.00 0.00 0.00 0.00 0.00 0.00 0.00 0.00 0.00 0.00 0.00 0.00 0.00 0.00 0.00 0.00 0.00 0.00 0.00 0.00 0.00 0.00 0.00 0.00 0.00 0.00 0.00 0.00 0.00 0.00 0.00 0.00 0.00 0.00 0.00 0.00 0.01 0.01 0.03 0.07 0.10 0.11 0.09
0.00 0.00 0.00 0.00 0.00 0.00 0.00 0.00 0.00 0.00 0.00 0.00 0.00 0.00 0.00 0.00 0.00 0.00 0.00 0.00 0.00 0.00 0.00 0.00 0.00 0.00 0.00 0.00 0.00 0.01 0.01 0.00 0.00 0.00 0.00 0.00 0.00 0.01 0.01 0.03 0.07 0.10 0.11
0.00 0.00 0.00 0.00 0.00 0.00 0.00 0.00 0.00 0.00 0.00 0.00 0.00 0.00 0.00 0.00 0.00 0.00 0.00 0.00 0.00 0.00 0.00 0.00 0.00 0.00 0.01 0.01 0.00 0.01 0.01 0.01 0.01 0.01 0.00 0.00 0.00 0.00 0.01 0.01 0.03 0.06 0.09
0.00 0.00 0.00 0.00 0.00 0.00 0.00 0.00 0.00 0.00 0.00 0.00 0.00 0.00 0.00 0.00 0.00 0.00 0.00 0.00 0.00 0.00 0.00 0.00 0.00 0.00 0.00 0.00 0.00 0.00 0.00 0.00 0.00 0.00 0.00 0.00 0.00 0.00 0.00 0.01 0.02 0.03 0.05
0.00 0.00 0.00 0.00 0.00 0.00 0.00 0.00 0.00 0.00 0.00 0.00 0.00 0.00 0.00 0.00 0.00 0.00 0.00 0.00 0.00 0.00 0.00 0.00 0.00 0.00 0.00 0.00 0.00 0.00 0.00 0.00 0.00 0.00 0.00 0.00 0.00 0.01 0.00 0.00 0.01 0.02 0.03
0.00 0.00 0.00 0.00 0.00 0.00 0.00 0.00 0.00 0.00 0.00 0.00 0.00 0.00 0.00 0.00 0.00 0.00 0.00 0.00 0.00 0.00 0.00 0.00 0.00 0.00 0.00 0.00 0.00 0.00 0.00 0.00 0.00 0.00 0.00 0.01 0.01 0.01 0.01 0.01 0.01 0.01 0.02
0.00 0.00 0.00 0.00 0.00 0.00 0.00 0.00 0.00 0.00 0.00 0.00 0.00 0.00 0.00 0.00 0.00 0.00 0.00 0.00 0.00 0.00 0.00 0.00 0.00 0.00 0.00 0.00 0.00 0.00 0.00 0.00 0.00 0.00 0.01 0.01 0.01 0.01 0.01 0.01 0.02 0.01 0.02
0.00 0.00 0.00 0.00 0.00 0.00 0.00 0.00 0.00 0.00 0.00 0.00 0.00 0.00 0.00 0.00 0.00 0.00 0.00 0.00 0.00 0.00 0.00 0.00 0.00 0.00 0.00 0.00 0.00 0.00 0.00 0.00 0.00 0.01 0.01 0.01 0.01 0.01 0.01 0.01 0.02 0.02 0.02
0.00 0.00 0.00 0.00 0.00 0.00 0.00 0.00 0.00 0.00 0.00 0.00 0.00 0.00 0.00 0.00 0.00 0.00 0.00 0.00 0.01 0.01 0.01 0.01 0.01 0.01 0.01 0.01 0.01 0.01 0.01 0.01 0.01 0.01 0.01 0.01 0.01 0.02 0.02 0.02 0.01 0.02 0.02
0.00 0.00 0.00 0.00 0.00 0.00 0.00 0.00 0.00 0.00 0.00 0.00 0.00 0.00 0.00 0.00 0.00 0.00 0.00 0.01 0.01 0.01 0.01 0.00 0.01 0.01 0.01 0.02 0.01 0.01 0.02 0.01 0.01 0.02 0.03 0.03 0.02 0.02 0.02 0.02 0.02 0.01 0.02
0.00 0.00 0.00 0.00 0.00 0.00 0.00 0.00 0.00 0.00 0.00 0.00 0.00 0.00 0.00 0.00 0.00 0.00 0.00 0.01 0.01 0.00 0.00 0.00 0.01 0.01 0.01 0.01 0.01 0.02 0.03 0.03 0.03 0.06 0.06 0.06 0.06 0.04 0.03 0.03 0.02 0.02 0.02
0.00 0.00 0.00 0.00 0.00 0.00 0.00 0.00 0.00 0.00 0.00 0.00 0.00 0.00 0.00 0.00 0.00 0.00 0.01 0.01 0.00 0.00 0.01 0.01 0.01 0.01 0.00 0.01 0.02 0.02 0.03 0.04 0.06 0.07 0.06 0.06 0.07 0.04 0.03 0.03 0.03 0.02 0.02
0.00 0.00 0.00 0.00 0.00 0.00 0.00 0.00 0.00 0.00 0.00 0.00 0.00 0.00 0.00 0.00 0.00 0.00 0.00 0.00 0.00 0.01 0.01 0.01 0.01 0.01 0.01 0.01 0.02 0.02 0.03 0.04 0.06 0.05 0.05 0.07 0.09 0.06 0.03 0.03 0.02 0.02 0.03
0.00 0.00 0.00 0.00 0.00 0.00 0.00 0.00 0.00 0.00 0.00 0.00 0.00 0.00 0.00 0.00 0.00 0.00 0.00 0.00 0.00 0.01 0.01 0.01 0.01 0.01 0.01 0.01 0.01 0.02 0.04 0.05 0.07 0.06 0.05 0.06 0.07 0.07 0.04 0.03 0.02 0.02 0.03
0.00 0.00 0.00 0.00 0.00 0.00 0.00 0.00 0.00 0.00 0.00 0.00 0.00 0.00 0.00 0.00 0.00 0.00 0.00 0.00 0.00 0.00 0.00 0.00 0.01 0.01 0.01 0.01 0.01 0.02 0.03 0.05 0.06 0.06 0.05 0.05 0.05 0.05 0.04 0.04 0.03 0.02 0.02
MSLP
1013.91 1013.90 1013.91 1013.89 1013.82 1013.69 1013.53 1013.37 1013.24 1013.17 1013.18 1013.25 1013.36 1013.46 1013.52 1013.51 1013.44 1013.31 1013.17 1013.05 1013.01 1013.06 1013.23 1013.50 1013.84 1014.20 1014.55 1014.84 1015.05 1015.15 1015.15 1015.05 1014.87 1014.63 1014.34 1014.01 1013.64 1013.27 1012.89 1012.55 1012.26 1012.06 1011.98
1014.20 1014.23 1014.26 1014.24 1014.15 1013.99 1013.80 1013.61 1013.48 1013.43 1013.47 1013.58 1013.72 1013.84 1013.91 1013.89 1013.78 1013.60 1013.39 1013.21 1013.10 1013.10 1013.22 1013.44 1013.74 1014.08 1014.39 1014.65 1014.83 1014.91 1014.90 1014.81 1014.64 1014.42 1014.15 1013.82 1013.46 1013.06 1012.63 1012.21 1011.84 1011.54 1011.36
1014.42 1014.50 1014.57 1014.57 1014.47 1014.30 1014.09 1013.90 1013.77 1013.73 1013.80 1013.95 1014.13 1014.28 1014.37 1014.34 1014.21 1013.99 1013.72 1013.47 1013.29 1013.20 1013.24 1013.38 1013.60 1013.85 1014.10 1014.30 1014.44 1014.51 1014.50 1014.43 1014.32 1014.15 1013.94 1013.67 1013.35 1012.95 1012.51 1012.03 1011.58 1011.18 1010.89
1014.58 1014.73 1014.84 1014.87 1014.79 1014.62 1014.40 1014.20 1014.07 1014.05 1014.15 1014.32 1014.53 1014.72 1014.82 1014.81 1014.66 1014.42 1014.11 1013.80 1013.54 1013.36 1013.30 1013.33 1013.44 1013.58 1013.73 1013.86 1013.95 1013.99 1014.00 1013.97 1013.92 1013.84 1013.72 1013.53 1013.27 1012.91 1012.47 1011.97 1011.45 1010.96 1010.57
1014.70 1014.90 1015.07 1015.14 1015.08 1014.92 1014.71 1014.50 1014.38 1014.36 1014.46 1014.65 1014.88 1015.09 1015.21 1015.21 1015.07 1014.82 1014.49 1014.14 1013.81 1013.56 1013.39 1013.31 1013.29 1013.32 1013.36 1013.40 1013.43 1013.44 1013.46 1013.48 1013.50 1013.50 1013.48 1013.38 1013.19 1012.88 1012.46 1011.95 1011.39 1010.84 1010.36
1014.79 1015.06 1015.28 1015.39 1015.36 1015.22 1015.01 1014.80 1014.66 1014.63 1014.72 1014.91 1015.14 1015.35 1015.48 1015.50 1015.38 1015.13 1014.81 1014.44 1014.08 1013.76 1013.50 1013.32 1013.19 1013.11 1013.04 1012.99 1012.95 1012.94 1012.95 1013.00 1013.07 1013.15 1013.20 1013.18 1013.06 1012.81 1012.42 1011.92 1011.35 1010.76 1010.22
1014.89 1015.21 1015.48 1015.62 1015.63 1015.50 1015.29 1015.08 1014.92 1014.87 1014.93 1015.08 1015.29 1015.48 1015.62 1015.64 1015.54 1015.32 1015.01 1014.65 1014.27 1013.93 1013.62 1013.36 1013.14 1012.96 1012.80 1012.67 1012.57 1012.51 1012.51 1012.56 1012.66 1012.78 1012.88 1012.92 1012.85 1012.66 1012.31 1011.84 1011.28 1010.69 1010.13
1015.02 1015.37 1015.67 1015.85 1015.88 1015.77 1015.57 1015.35 1015.16 1015.07 1015.08 1015.18 1015.33 1015.49 1015.60 1015.62 1015.53 1015.34 1015.06 1014.72 1014.37 1014.02 1013.69 1013.39 1013.11 1012.86 1012.63 1012.43 1012.27 1012.17 1012.13 1012.17 1012.27 1012.39 1012.52 1012.58 1012.56 1012.40 1012.10 1011.68 1011.17 1010.61 1010.07
1015.17 1015.53 1015.85 1016.06 1016.11 1016.02 1015.83 1015.60 1015.39 1015.25 1015.19 1015.23 1015.31 1015.40 1015.47 1015.46 1015.37 1015.19 1014.94 1014.64 1014.31 1013.98 1013.66 1013.35 1013.05 1012.76 1012.48 1012.23 1012.03 1011.88 1011.81 1011.81 1011.88 1011.99 1012.10 1012.17 1012.16 1012.05 1011.80 1011.45 1011.01 1010.53 1010.04
1015.33 1015.70 1016.03 1016.25 1016.32 1016.24 1016.06 1015.83 1015.59 1015.41 1015.29 1015.24 1015.24 1015.25 1015.24 1015.19 1015.07 1014.89 1014.65 1014.38 1014.09 1013.79 1013.49 1013.19 1012.89 1012.59 1012.30 1012.03 1011.79 1011.60 1011.49 1011.45 1011.48 1011.55 1011.64 1011.70 1011.70 1011.61 1011.43 1011.16 1010.81 1010.43 1010.04
1015.50 1015.86 1016.18 1016.40 1016.48 1016.42 1016.25 1016.02 1015.77 1015.54 1015.36 1015.23 1015.14 1015.06 1014.96 1014.84 1014.68 1014.47 1014.23 1013.97 1013.70 1013.43 1013.16 1012.88 1012.60 1012.31 1012.02 1011.74 1011.49 1011.29 1011.14 1011.07 1011.05 1011.08 1011.14 1011.18 1011.18 1011.13 1011.01 1010.82 1010.58 1010.32 1010.06
1015.67 1016.00 1016.30 1016.50 1016.58 1016.53 1016.37 1016.15 1015.90 1015.64 1015.41 1015.21 1015.03 1014.85 1014.67 1014.46 1014.23 1013.98 1013.72 1013.45 1013.19 1012.93 1012.68 1012.43 1012.17 1011.90 1011.63 1011.36 1011.11 1010.90 1010.74 1010.63 1010.59 1010.58 1010.60 1010.63 1010.64 1010.61 1010.55 1010.45 1010.32 1010.18 1010.04
1015.81 1016.10 1016.36 1016.53 1016.60 1016.55 1016.41 1016.20 1015.95 1015.69 1015.42 1015.17 1014.91 1014.65 1014.37 1014.08 1013.78 1013.47 1013.17 1012.88 1012.61 1012.35 1012.11 1011.87 1011.63 1011.38 1011.12 1010.87 1010.63 1010.42 1010.26 1010.14 1010.07 1010.05 1010.05 1010.06 1010.07 1010.08 1010.07 1010.04 1010.01 1009.99 1009.96
1015.91 1016.16 1016.36 1016.49 1016.53 1016.48 1016.35 1016.16 1015.92 1015.66 1015.38 1015.09 1014.78 1014.45 1014.10 1013.74 1013.37 1013.00 1012.65 1012.33 1012.03 1011.76 1011.50 1011.26 1011.02 1010.78 1010.54 1010.30 1010.08 1009.88 1009.72 1009.60 1009.52 1009.48 1009.47 1009.48 1009.50 1009.52 1009.55 1009.59 1009.63 1009.70 1009.77
1015.98 1016.16 1016.30 1016.38 1016.39 1016.33 1016.21 1016.03 1015.81 1015.56 1015.28 1014.97 1014.63 1014.26 1013.86 1013.44 1013.02 1012.61 1012.21 1011.85 1011.52 1011.22 1010.94 1010.68 1010.43 1010.18 1009.93 1009.70 1009.48 1009.29 1009.13 1009.01 1008.93 1008.89 1008.88 1008.88 1008.90 1008.94 1009.00 1009.07 1009.17 1009.29 1009.44
1016.00 1016.12 1016.19 1016.22 1016.19 1016.11 1015.99 1015.83 1015.63 1015.40 1015.13 1014.82 1014.47 1014.07 1013.65 1013.20 1012.75 1012.30 1011.88 1011.48 1011.12 1010.79 1010.48 1010.19 1009.90 1009.63 1009.36 1009.11 1008.88 1008.68 1008.52 1008.40 1008.32 1008.28 1008.26 1008.26 1008.29 1008.33 1008.40 1008.50 1008.62 1008.78 1008.97
1015.96 1016.02 1016.04 1016.01 1015.95 1015.85 1015.73 1015.58 1015.40 1015.19 1014.93 1014.63 1014.28 1013.89 1013.45 1013.00 1012.54 1012.08 1011.64 1011.23 1010.84 1010.48 1010.14 1009.81 1009.48 1009.16 1008.86 1008.57 1008.32 1008.10 1007.93 1007.80 1007.71 1007.66 1007.64 1007.64 1007.66 1007.71 1007.78 1007.88 1008.02 1008.20 1008.41
1015.87 1015.88 1015.85 1015.78 1015.69 1015.58 1015.46 1015.32 1015.15 1014.95 1014.71 1014.41 1014.07 1013.68 1013.26 1012.81 1012.36 1011.91 1011.48 1011.07 1010.67 1010.29 1009.91 1009.54 1009.17 1008.80 1008.44 1008.11 1007.82 1007.56 1007.36 1007.21 1007.11 1007.05 1007.02 1007.02 1007.04 1007.09 1007.16 1007.27 1007.42 1007.60 1007.83
1015.72 1015.70 1015.64 1015.55 1015.44 1015.33 1015.21 1015.07 1014.91 1014.71 1014.47 1014.18 1013.84 1013.46 1013.05 1012.62 1012.19 1011.76 1011.34 1010.94 1010.55 1010.15 1009.76 1009.35 1008.94 1008.52 1008.12 1007.74 1007.39 1007.10 1006.86 1006.69 1006.57 1006.49 1006.46 1006.46 1006.48 1006.53 1006.61 1006.73 1006.88 1007.08 1007.31
1015.51 1015.47 1015.40 1015.31 1015.20 1015.10 1014.98 1014.85 1014.68 1014.48 1014.23 1013.93 1013.59 1013.20 1012.80 1012.39 1011.97 1011.57 1011.18 1010.80 1010.42 1010.03 1009.63 1009.21 1008.77 1008.31 1007.87 1007.44 1007.06 1006.73 1006.46 1006.26 1006.12 1006.03 1005.99 1005.99 1006.02 1006.08 1006.17 1006.29 1006.46 1006.67 1006.93
1015.24 1015.20 1015.14 1015.06 1014.98 1014.89 1014.78 1014.65 1014.48 1014.26 1013.99 1013.67 1013.31 1012.91 1012.50 1012.09 1011.70 1011.32 1010.96 1010.61 1010.25 1009.88 1009.49 1009.06 1008.62 1008.15 1007.68 1007.23 1006.82 1006.46 1006.17 1005.95 1005.79 1005.70 1005.65 1005.65 1005.69 1005.76 1005.87 1006.01 1006.20 1006.43 1006.71
1014.91 1014.89 1014.85 1014.80 1014.75 1014.68 1014.59 1014.47 1014.29 1014.05 1013.75 1013.40 1013.00 1012.58 1012.16 1011.75 1011.36 1011.00 1010.66 1010.34 1010.01 1009.67 1009.31 1008.90 1008.47 1008.01 1007.55 1007.10 1006.68 1006.31 1006.01 1005.78 1005.62 1005.52 1005.48 1005.48 1005.52 1005.60 1005.72 1005.89 1006.09 1006.34 1006.63
1014.53 1014.53 1014.53 1014.52 1014.51 1014.48 1014.41 1014.28 1014.10 1013.83 1013.50 1013.11 1012.68 1012.23 1011.79 1011.36 1010.97 1010.62 1010.30 1010.00 1009.71 1009.41 1009.08 1008.72 1008.32 1007.90 1007.46 1007.04 1006.64 1006.29 1006.00 1005.77 1005.61 1005.51 1005.46 1005.46 1005.50 1005.58 1005.71 1005.88 1006.09 1006.34 1006.64
1014.11 1014.14 1014.18 1014.22 1014.25 1014.25 1014.20 1014.08 1013.88 1013.60 1013.24 1012.82 1012.36 1011.88 1011.40 1010.96 1010.57 1010.22 1009.91 1009.64 1009.38 1009.12 1008.84 1008.52 1008.18 1007.81 1007.42 1007.04 1006.68 1006.36 1006.09 1005.88 1005.72 1005.62 1005.57 1005.56 1005.59 1005.66 1005.77 1005.93 1006.13 1006.38 1006.67
1013.66 1013.73 1013.81 1013.89 1013.95 1013.98 1013.95 1013.85 1013.65 1013.35 1012.97 1012.53 1012.04 1011.53 1011.04 1010.58 1010.18 1009.83 1009.54 1009.29 1009.05 1008.83 1008.59 1008.33 1008.04 1007.73 1007.40 1007.08 1006.77 1006.49 1006.25 1006.06 1005.91 1005.80 1005.73 1005.70 1005.71 1005.75 1005.83 1005.96 1006.13 1006.35 1006.62
1013.21 1013.31 1013.42 1013.54 1013.63 1013.69 1013.67 1013.58 1013.38 1013.08 1012.69 1012.24 1011.73 1011.22 1010.72 1010.26 1009.85 1009.51 1009.22 1008.97 1008.76 1008.56 1008.36 1008.14 1007.90 1007.65 1007.38 1007.11 1006.86 1006.62 1006.41 1006.23 1006.08 1005.96 1005.88 1005.81 1005.78 1005.78 1005.82 1005.90 1006.03 1006.21 1006.43
Thickness
5731 5731 5730 5729 5727 5725 5724 5722 5720 5718 5715 5710 5706 5703 5701 5700 5699 5698 5697 5695 5694 5692 5691 5690 5689 5688 5688 5687 5688 5688 5688 5689 5690 5690 5693 5698 5702 5705 5709 5710 5711 5712 5714
5724 5724 5724 5723 5721 5719 5718 5716 5714 5711 5709 5705 5702 5699 5696 5693 5691 5691 5689 5688 5686 5684 5683 5682 5681 5680 5680 5679 5680 5680 5680 5681 5683 5682 5683 5685 5691 5698 5705 5707 5707 5709 5711
5718 5719 5719 5718 5717 5716 5714 5712 5708 5705 5702 5699 5695 5691 5687 5684 5682 5681 5680 5679 5678 5676 5675 5674 5673 5672 5671 5671 5671 5672 5672 5671 5674 5675 5675 5675 5679 5686 5695 5700 5703 5705 5706
5717 5716 5716 5715 5714 5713 5711 5707 5704 5700 5697 5693 5689 5684 5678 5675 5674 5672 5671 5670 5669 5668 5667 5666 5665 5664 5663 5663 5663 5664 5664 5664 5665 5667 5669 5671 5674 5675 5681 5689 5694 5698 5701
5716 5714 5714 5713 5712 5710 5707 5703 5699 5695 5691 5687 5683 5677 5673 5669 5667 5665 5663 5661 5660 5659 5658 5657 5656 5655 5654 5654 5654 5655 5655 5656 5657 5658 5660 5662 5665 5669 5671 5676 5683 5689 5696
5716 5714 5713 5712 5709 5706 5702 5697 5693 5688 5684 5680 5675 5671 5666 5663 5660 5657 5655 5653 5651 5650 5649 5648 5647 5646 5645 5645 5646 5646 5647 5648 5649 5651 5652 5653 5656 5659 5663 5667 5673 5678 5687
5713 5710 5709 5707 5703 5700 5695 5691 5686 5681 5677 5673 5669 5664 5660 5656 5652 5649 5646 5643 5641 5640 5639 5638 5637 5637 5637 5637 5637 5638 5639 5640 5641 5643 5644 5646 5649 5653 5655 5659 5664 5670 5677
5710 5708 5705 5702 5698 5694 5689 5685 5680 5675 5671 5666 5662 5658 5653 5649 5645 5641 5638 5635 5632 5631 5630 5629 5628 5628 5628 5628 5629 5629 5630 5632 5633 5636 5637 5639 5642 5645 5648 5651 5655 5660 5666
5707 5703 5700 5696 5692 5687 5683 5678 5673 5668 5664 5659 5655 5650 5646 5641 5637 5633 5629 5626 5624 5622 5621 5620 5619 5618 5618 5618 5619 5619 5621 5623 5624 5627 5629 5631 5634 5637 5640 5644 5648 5651 5656
5703 5699 5694 5690 5685 5681 5676 5671 5666 5661 5656 5652 5647 5643 5638 5634 5629 5625 5621 5618 5615 5613 5612 5611 5609 5609 5609 5609 5609 5610 5612 5613 5615 5616 5619 5622 5625 5628 5632 5635 5640 5644 5648
5697 5693 5688 5684 5679 5674 5669 5664 5659 5653 5648 5643 5638 5633 5629 5625 5620 5616 5612 5609 5607 5605 5603 5601 5600 5599 5599 5599 5599 5600 5601 5603 5605 5607 5609 5612 5616 5619 5622 5626 5630 5634 5639
5692 5687 5682 5677 5672 5667 5662 5657 5651 5646 5641 5636 5631 5626 5621 5616 5611 5608 5604 5601 5599 5597 5594 5593 5591 5591 5591 5590 5590 5590 5592 5593 5594 5596 5598 5602 5605 5608 5612 5615 5620 5625 5630
5687 5681 5675 5670 5665 5660 5654 5649 5644 5639 5634 5629 5624 5618 5613 5608 5604 5600 5597 5594 5591 5588 5586 5584 5582 5582 5581 5581 5581 5581 5582 5583 5584 5586 5588 5592 5594 5598 5602 5606 5610 5615 5620
5681 5676 5669 5664 5659 5653 5648 5643 5638 5633 5628 5622 5617 5611 5606 5601 5597 5593 5590 5586 5583 5580 5578 5575 5574 5573 5572 5572 5571 5571 5572 5573 5574 5576 5578 5581 5584 5588 5591 5596 5600 5604 5609
5677 5672 5665 5659 5653 5648 5643 5638 5633 5627 5621 5615 5610 5605 5600 5595 5590 5586 5582 5578 5575 5573 5570 5567 5566 5564 5563 5564 5563 5562 5563 5563 5564 5565 5567 5570 5573 5578 5581 5586 5591 5594 5598
5673 5668 5662 5656 5650 5645 5639 5633 5627 5622 5616 5609 5604 5599 5594 5589 5584 5579 5575 5571 5567 5565 5562 5559 5558 5556 5556 5556 5555 5554 5553 5553 5554 5555 5557 5559 5562 5567 5571 5576 5581 5585 5589
5670 5665 5659 5653 5647 5641 5635 5628 5623 5617 5610 5604 5599 5594 5588 5583 5578 5574 5569 5565 5561 5557 5554 5552 5550 5548 5548 5546 5546 5545 5544 5543 5544 5545 5546 5549 5554 5556 5560 5564 5570 5575 5581
5669 5663 5657 5651 5645 5638 5631 5624 5618 5611 5605 5599 5594 5589 5583 5577 5572 5567 5562 5558 5554 5550 5547 5545 5543 5541 5541 5539 5538 5536 5535 5535 5535 5535 5536 5538 5541 5545 5547 5552 5557 5563 5570
5668 5662 5656 5648 5641 5634 5628 5620 5613 5607 5600 5595 5589 5583 5577 5572 5567 5562 5557 5553 5548 5544 5541 5539 5536 5534 5534 5532 5530 5528 5527 5526 5526 5526 5527 5528 5531 5534 5536 5540 5546 5552 5558
5667 5660 5653 5645 5638 5632 5624 5616 5609 5602 5596 5591 5585 5579 5573 5567 5562 5557 5553 5548 5543 5539 5536 5534 5531 5528 5527 5525 5523 5521 5519 5518 5518 5518 5519 5520 5521 5524 5526 5530 5535 5541 5547
5666 5659 5650 5642 5636 5629 5620 5612 5605 5599 5593 5587 5581 5575 5569 5563 5559 5554 5549 5544 5540 5535 5532 5529 5527 5524 5522 5520 5518 5515 5513 5512 5511 5511 5512 5513 5513 5515 5517 5521 5526 5532 5537
5663 5656 5647 5640 5633 5625 5617 5610 5603 5598 5590 5584 5577 5572 5566 5561 5558 5551 5547 5542 5536 5532 5529 5525 5523 5521 5519 5516 5514 5511 5509 5507 5505 5506 5506 5507 5506 5508 5509 5512 5517 5521 5525
5659 5652 5644 5637 5631 5623 5614 5607 5602 5595 5587 5581 5575 5569 5564 5559 5554 5548 5544 5539 5534 5529 5526 5523 5520 5519 5516 5513 5510 5508 5506 5504 5502 5502 5501 5501 5501 5501 5503 5505 5509 5512 5518
5656 5649 5641 5634 5628 5621 5613 5606 5599 5592 5585 5578 5573 5568 5563 5558 5553 5548 5542 5538 5533 5529 5525 5521 5519 5516 5514 5511 5508 5505 5503 5501 5500 5499 5498 5497 5497 5497 5499 5501 5504 5508 5514
5654 5646 5639 5632 5626 5620 5612 5605 5598 5590 5583 5577 5571 5566 5561 5556 5552 5548 5543 5538 5534 5527 5523 5521 5517 5514 5513 5510 5505 5501 5501 5499 5498 5496 5496 5496 5496 5497 5497 5499 5501 5504 5508
5651 5644 5637 5630 5624 5617 5610 5604 5596 5588 5581 5575 5570 5565 5560 5556 5551 5546 5544 5541 5535 5530 5525 5520 5515 5513 5510 5507 5504 5501 5499 5497 5495 5494 5496 5496 5497 5497 5498 5499 5500 5502 5506